^^
Station Historical Data
Daily Summary for December 9, 2017 Units:  Metric    English   Both
« Previous Day
Next Day »
Daily Weekly Monthly Yearly Custom
  High: Low: Average:
Temperature: 31.1 °C 16.3 °C 24.1 °C
Dew Point: 14.3 °C 6.4 °C 10.4 °C
Humidity: 83% 23% 47%
Wind Speed: 19.5km/h 0km/h 3.4km/h
Wind Gust: 29km/h - -
Wind- - ESE
Pressure: 1025.3 hPa 1019.9 hPa -
Precipitation: 0 mm    
Historical Graphs
 
 
Tabular Data for December 9, 2017
Time Temperature Dew Point Pressure Wind Wind Speed Wind Gust Humidity Rainfall Rate (Hourly) solar Conditions
00:04 21.2 °C 12.3 °C 1024.9 hPa Calm   4.8 km/h 57% 0 mm 0.0 W/m2
00:09 21.1 °C 12.5 °C 1024.9 hPa NE 3.2 km/h 8 km/h 58% 0 mm 0.0 W/m2
00:14 21 °C 12.7 °C 1024.9 hPa NNW 1.4 km/h 8 km/h 59% 0 mm 0.0 W/m2
00:19 20.9 °C 12.6 °C 1024.9 hPa Calm   6.4 km/h 59% 0 mm 0.0 W/m2
00:25 20.8 °C 12.5 °C 1024.9 hPa Calm   1.6 km/h 59% 0 mm 0.0 W/m2
00:30 20.7 °C 12.7 °C 1024.9 hPa Calm   3.2 km/h 60% 0 mm 0.0 W/m2
00:35 20.6 °C 12.6 °C 1024.9 hPa Calm     60% 0 mm 0.0 W/m2
00:40 20.5 °C 12.7 °C 1024.9 hPa Calm   1.6 km/h 61% 0 mm 0.0 W/m2
00:45 20.4 °C 12.6 °C 1024.9 hPa Calm   1.6 km/h 61% 0 mm 0.0 W/m2
00:50 20.3 °C 12.8 °C 1025.3 hPa Calm   1.6 km/h 62% 0 mm 0.0 W/m2
00:55 20.2 °C 12.9 °C 1024.9 hPa Calm   6.4 km/h 63% 0 mm 0.0 W/m2
01:00 20.2 °C 12.9 °C 1024.9 hPa SE 1.4 km/h 6.4 km/h 63% 0 mm 0.0 W/m2
01:05 20.1 °C 13.1 °C 1024.9 hPa ESE 3.2 km/h 4.8 km/h 64% 0 mm 0.0 W/m2
01:11 20 °C 13 °C 1024.9 hPa Calm   3.2 km/h 64% 0 mm 0.0 W/m2
01:16 19.9 °C 12.9 °C 1024.9 hPa ENE 3.2 km/h 3.2 km/h 64% 0 mm 0.0 W/m2
01:21 19.9 °C 13.1 °C 1024.9 hPa Calm   1.6 km/h 65% 0 mm 0.0 W/m2
01:26 19.8 °C 13.3 °C 1024.9 hPa Calm   1.6 km/h 66% 0 mm 0.0 W/m2
01:30 19.7 °C 13.2 °C 1024.9 hPa Calm     66% 0 mm 0.0 W/m2
01:35 19.7 °C 13.4 °C 1024.9 hPa ENE 1.4 km/h 3.2 km/h 67% 0 mm 0.0 W/m2
01:40 19.6 °C 13.3 °C 1024.9 hPa Calm   1.6 km/h 67% 0 mm 0.0 W/m2
01:45 19.4 °C 13.3 °C 1024.6 hPa Calm   3.2 km/h 68% 0 mm 0.0 W/m2
01:50 19.4 °C 13.3 °C 1024.6 hPa East 4.7 km/h 4.8 km/h 68% 0 mm 0.0 W/m2
01:56 19.3 °C 13.2 °C 1024.6 hPa Calm   3.2 km/h 68% 0 mm 0.0 W/m2
02:11 19.2 °C 13.4 °C 1024.3 hPa East 1.4 km/h 3.2 km/h 69% 0 mm 0.0 W/m2
02:16 19.1 °C 13.3 °C 1024.3 hPa Calm   1.6 km/h 69% 0 mm 0.0 W/m2
02:21 19.1 °C 13.5 °C 1024.3 hPa Calm   1.6 km/h 70% 0 mm 0.0 W/m2
02:26 19 °C 13.4 °C 1024.3 hPa Calm   3.2 km/h 70% 0 mm 0.0 W/m2
02:32 18.9 °C 13.3 °C 1024.3 hPa Calm   4.8 km/h 70% 0 mm 0.0 W/m2
02:37 18.8 °C 13.4 °C 1024.3 hPa Calm   1.6 km/h 71% 0 mm 0.0 W/m2
02:42 18.8 °C 13.4 °C 1024.3 hPa Calm   4.8 km/h 71% 0 mm 0.0 W/m2
02:52 18.7 °C 13.5 °C 1023.9 hPa Calm   4.8 km/h 72% 0 mm 0.0 W/m2
02:57 18.7 °C 13.5 °C 1023.9 hPa Calm   1.6 km/h 72% 0 mm 0.0 W/m2
03:02 18.7 °C 13.5 °C 1023.9 hPa Calm   1.6 km/h 72% 0 mm 0.0 W/m2
03:07 18.6 °C 13.7 °C 1023.9 hPa Calm     73% 0 mm 0.0 W/m2
03:13 18.5 °C 13.6 °C 1023.9 hPa Calm     73% 0 mm 0.0 W/m2
03:18 18.4 °C 13.5 °C 1023.9 hPa Calm     73% 0 mm 0.0 W/m2
03:23 18.4 °C 13.7 °C 1023.9 hPa Calm     74% 0 mm 0.0 W/m2
03:28 18.3 °C 13.6 °C 1023.6 hPa Calm     74% 0 mm 0.0 W/m2
03:33 18.3 °C 13.6 °C 1023.6 hPa Calm     74% 0 mm 0.0 W/m2
03:38 18.2 °C 13.7 °C 1023.6 hPa Calm   1.6 km/h 75% 0 mm 0.0 W/m2
03:43 18.1 °C 13.6 °C 1023.6 hPa Calm   1.6 km/h 75% 0 mm 0.0 W/m2
03:53 17.9 °C 13.6 °C 1023.2 hPa Calm   1.6 km/h 76% 0 mm 0.0 W/m2
03:59 17.9 °C 13.6 °C 1023.6 hPa Calm     76% 0 mm 0.0 W/m2
04:04 17.8 °C 13.5 °C 1023.6 hPa Calm     76% 0 mm 0.0 W/m2
04:09 17.8 °C 13.5 °C 1023.6 hPa Calm   1.6 km/h 76% 0 mm 0.0 W/m2
04:14 17.7 °C 13.6 °C 1023.2 hPa Calm     77% 0 mm 0.0 W/m2
04:19 17.6 °C 13.5 °C 1023.6 hPa Calm     77% 0 mm 0.0 W/m2
04:24 17.6 °C 13.5 °C 1023.6 hPa Calm     77% 0 mm 0.0 W/m2
04:29 17.4 °C 13.3 °C 1023.6 hPa Calm   1.6 km/h 77% 0 mm 0.0 W/m2
04:34 17.4 °C 13.5 °C 1023.2 hPa Calm   1.6 km/h 78% 0 mm 0.0 W/m2
04:39 17.3 °C 13.4 °C 1023.2 hPa Calm   1.6 km/h 78% 0 mm 0.0 W/m2
04:45 17.3 °C 13.6 °C 1023.2 hPa Calm   1.6 km/h 79% 0 mm 0.0 W/m2
04:50 17.2 °C 13.5 °C 1023.6 hPa Calm     79% 0 mm 0.0 W/m2
04:55 17.2 °C 13.5 °C 1023.6 hPa Calm     79% 0 mm 0.0 W/m2
05:00 17.1 °C 13.4 °C 1023.6 hPa Calm     79% 0 mm 0.0 W/m2
05:05 17.1 °C 13.4 °C 1023.6 hPa Calm   1.6 km/h 79% 0 mm 0.0 W/m2
05:10 17.1 °C 13.6 °C 1023.2 hPa Calm     80% 0 mm 0.0 W/m2
05:16 16.9 °C 13.4 °C 1023.2 hPa Calm     80% 0 mm 0.0 W/m2
05:21 16.9 °C 13.4 °C 1023.6 hPa Calm     80% 0 mm 0.0 W/m2
05:23 16.9 °C 13.4 °C 1023.2 hPa Calm     80% 0 mm 0.0 W/m2
05:29 16.8 °C 13.5 °C 1023.2 hPa Calm     81% 0 mm 0.0 W/m2
05:32 16.8 °C 13.5 °C 1023.6 hPa Calm   1.6 km/h 81% 0 mm 0.0 W/m2
05:37 16.7 °C 13.4 °C 1023.6 hPa Calm     81% 0 mm 0.0 W/m2
05:47 16.6 °C 13.3 °C 1023.6 hPa Calm     81% 0 mm 0.0 W/m2
05:57 16.5 °C 13.4 °C 1023.6 hPa Calm     82% 0 mm 0.0 W/m2
06:02 16.4 °C 13.3 °C 1023.6 hPa Calm     82% 0 mm 0.0 W/m2
06:07 16.4 °C 13.3 °C 1023.9 hPa Calm   1.6 km/h 82% 0 mm 5.0 W/m2
06:13 16.3 °C 13.2 °C 1023.9 hPa Calm   1.6 km/h 82% 0 mm 9.0 W/m2
06:18 16.3 °C 13.4 °C 1023.6 hPa Calm   1.6 km/h 83% 0 mm 11.0 W/m2
06:23 16.3 °C 13.4 °C 1023.9 hPa Calm     83% 0 mm 12.0 W/m2
06:28 16.3 °C 13.4 °C 1023.9 hPa Calm   1.6 km/h 83% 0 mm 14.0 W/m2
06:33 16.3 °C 13.4 °C 1023.9 hPa East 3.2 km/h 3.2 km/h 83% 0 mm 16.0 W/m2
06:38 16.3 °C 13.4 °C 1024.3 hPa Calm     83% 0 mm 18.0 W/m2
06:43 16.3 °C 13.4 °C 1024.3 hPa Calm   1.6 km/h 83% 0 mm 18.0 W/m2
06:48 16.4 °C 13.5 °C 1024.3 hPa Calm   1.6 km/h 83% 0 mm 19.0 W/m2
06:53 16.4 °C 13.5 °C 1024.3 hPa Calm     83% 0 mm 21.0 W/m2
06:58 16.6 °C 13.7 °C 1024.3 hPa Calm     83% 0 mm 23.0 W/m2
07:04 16.7 °C 13.6 °C 1024.3 hPa Calm   1.6 km/h 82% 0 mm 25.0 W/m2
07:09 16.9 °C 13.6 °C 1024.6 hPa Calm   3.2 km/h 81% 0 mm 25.0 W/m2
07:15 17.2 °C 13.7 °C 1024.6 hPa ESE 1.4 km/h 3.2 km/h 80% 0 mm 26.0 W/m2
07:20 17.6 °C 13.9 °C 1024.3 hPa Calm   1.6 km/h 79% 0 mm 26.0 W/m2
07:25 17.8 °C 13.7 °C 1024.6 hPa Calm   1.6 km/h 77% 0 mm 28.0 W/m2
07:30 18.1 °C 13.8 °C 1024.6 hPa NNE 3.2 km/h 4.8 km/h 76% 0 mm 93.0 W/m2
07:35 18.4 °C 13.7 °C 1024.6 hPa NE 3.2 km/h 4.8 km/h 74% 0 mm 171.0 W/m2
07:40 18.9 °C 13.7 °C 1024.6 hPa East 3.2 km/h 6.4 km/h 72% 0 mm 334.0 W/m2
07:46 19.4 °C 13.8 °C 1024.6 hPa NE 1.4 km/h 4.8 km/h 70% 0 mm 357.0 W/m2
07:56 20.6 °C 14.3 °C 1024.6 hPa ESE 3.2 km/h 4.8 km/h 67% 0 mm 403.0 W/m2
08:01 20.8 °C 14.2 °C 1024.6 hPa East 3.2 km/h 3.2 km/h 66% 0 mm 425.0 W/m2
08:06 21.2 °C 14.1 °C 1024.3 hPa North 1.4 km/h 6.4 km/h 64% 0 mm 446.0 W/m2
08:11 21.7 °C 14.1 °C 1024.3 hPa SE 3.2 km/h 6.4 km/h 62% 0 mm 455.0 W/m2
08:16 22.1 °C 14.2 °C 1024.3 hPa NNE 3.2 km/h 6.4 km/h 61% 0 mm 483.0 W/m2
08:21 22.4 °C 14.3 °C 1024.3 hPa East 9.7 km/h 9.7 km/h 60% 0 mm 504.0 W/m2
08:26 22.7 °C 14 °C 1024.3 hPa North 7.9 km/h 9.7 km/h 58% 0 mm 520.0 W/m2
08:31 22.8 °C 14.1 °C 1024.3 hPa NE 3.2 km/h 4.8 km/h 58% 0 mm 543.0 W/m2
08:37 23.1 °C 14.1 °C 1024.3 hPa East 4.7 km/h 8 km/h 57% 0 mm 563.0 W/m2
08:52 23.6 °C 13.7 °C 1023.9 hPa Calm   1.6 km/h 54% 0 mm 617.0 W/m2
09:02 23.9 °C 13.7 °C 1023.9 hPa Calm   9.7 km/h 53% 0 mm 654.0 W/m2
09:08 24.2 °C 13.4 °C 1023.9 hPa ESE 6.4 km/h 11.3 km/h 51% 0 mm 677.0 W/m2
09:13 24.3 °C 13.5 °C 1023.9 hPa East 7.9 km/h 9.7 km/h 51% 0 mm 693.0 W/m2
09:18 24.5 °C 13.4 °C 1023.9 hPa ENE 4.7 km/h 8 km/h 50% 0 mm 710.0 W/m2
09:24 24.7 °C 13 °C 1023.9 hPa NE 3.2 km/h 9.7 km/h 48% 0 mm 719.0 W/m2
09:29 25 °C 12.9 °C 1023.9 hPa ENE 4.7 km/h 9.7 km/h 47% 0 mm 744.0 W/m2
09:34 25.1 °C 12.7 °C 1023.9 hPa East 1.4 km/h 4.8 km/h 46% 0 mm 758.0 W/m2
09:39 25.2 °C 11.7 °C 1023.9 hPa ENE 3.2 km/h 12.9 km/h 43% 0 mm 772.0 W/m2
09:44 25.3 °C 12.8 °C 1023.9 hPa NNE 6.4 km/h 14.5 km/h 46% 0 mm 791.0 W/m2
09:49 25.6 °C 12.8 °C 1023.9 hPa NE 1.4 km/h 8 km/h 45% 0 mm 809.0 W/m2
09:54 25.9 °C 12.4 °C 1023.9 hPa South 1.4 km/h 6.4 km/h 43% 0 mm 819.0 W/m2
09:59 26 °C 11.4 °C 1023.6 hPa NE 7.9 km/h 12.9 km/h 40% 0 mm 835.0 W/m2
10:04 26.1 °C 11.1 °C 1023.6 hPa SSE 4.7 km/h 9.7 km/h 39% 0 mm 849.0 W/m2
10:10 26.2 °C 11.2 °C 1023.9 hPa North 4.7 km/h 6.4 km/h 39% 0 mm 860.0 W/m2
10:15 26.5 °C 11.4 °C 1023.6 hPa NNE 7.9 km/h 11.3 km/h 39% 0 mm 877.0 W/m2
10:20 26.8 °C 11.3 °C 1023.6 hPa Calm   11.3 km/h 38% 0 mm 889.0 W/m2
10:25 27 °C 11.5 °C 1023.6 hPa ENE 11.1 km/h 11.3 km/h 38% 0 mm 905.0 W/m2
10:30 27.1 °C 11.6 °C 1023.6 hPa SE 1.4 km/h 8 km/h 38% 0 mm 944.0 W/m2
10:35 27.2 °C 11.2 °C 1023.6 hPa ENE 3.2 km/h 6.4 km/h 37% 0 mm 995.0 W/m2
10:40 27.1 °C 10.7 °C 1023.6 hPa NNE 4.7 km/h 16.1 km/h 36% 0 mm 990.0 W/m2
10:45 27.3 °C 10.5 °C 1023.2 hPa East 9.7 km/h 12.9 km/h 35% 0 mm 171.0 W/m2
10:50 27.2 °C 11.2 °C 1023.2 hPa ESE 11.1 km/h 14.5 km/h 37% 0 mm 1037.0 W/m2
10:55 27.6 °C 10.8 °C 1023.2 hPa East 3.2 km/h 16.1 km/h 35% 0 mm 1018.0 W/m2
11:07 27.9 °C 10.1 °C 1023.2 hPa ENE 11.1 km/h 11.3 km/h 33% 0 mm 200.0 W/m2
11:12 27.6 °C 9.4 °C 1023.2 hPa ENE 7.9 km/h 16.1 km/h 32% 0 mm 1121.0 W/m2
11:17 27.8 °C 10.1 °C 1023.2 hPa SE 9.7 km/h 16.1 km/h 33% 0 mm 1137.0 W/m2
11:22 27.7 °C 9.5 °C 1023.2 hPa SE 14.3 km/h 17.7 km/h 32% 0 mm 232.0 W/m2
11:27 27.3 °C 8.7 °C 1023.2 hPa SE 1.4 km/h 14.5 km/h 31% 0 mm 1125.0 W/m2
11:37 28.1 °C 8.4 °C 1023.2 hPa SE 11.1 km/h 16.1 km/h 29% 0 mm 1071.0 W/m2
11:42 28.2 °C 9 °C 1023.2 hPa Calm   20.9 km/h 30% 0 mm 1049.0 W/m2
11:48 28.4 °C 8.7 °C 1022.9 hPa ESE 14.3 km/h 20.9 km/h 29% 0 mm 1065.0 W/m2
11:53 28.6 °C 8.8 °C 1022.9 hPa ESE 9.7 km/h 16.1 km/h 29% 0 mm 1071.0 W/m2
11:58 28.8 °C 8.5 °C 1022.9 hPa SSE 6.4 km/h 14.5 km/h 28% 0 mm 1069.0 W/m2
12:14 29.3 °C 8.4 °C 1022.9 hPa East 7.9 km/h 20.9 km/h 27% 0 mm 1165.0 W/m2
12:19 29.4 °C 7.3 °C 1022.6 hPa East 1.4 km/h 20.9 km/h 25% 0 mm 1211.0 W/m2
12:24 29.6 °C 8.6 °C 1022.6 hPa ENE 9.7 km/h 16.1 km/h 27% 0 mm 1197.0 W/m2
12:29 29.6 °C 8.1 °C 1022.6 hPa SE 11.1 km/h 16.1 km/h 26% 0 mm 211.0 W/m2
12:34 29.2 °C 8.8 °C 1022.6 hPa East 11.1 km/h 16.1 km/h 28% 0 mm 195.0 W/m2
12:40 29.1 °C 8.2 °C 1022.6 hPa East 3.2 km/h 14.5 km/h 27% 0 mm 1095.0 W/m2
12:45 29.4 °C 7.9 °C 1022.6 hPa SE 9.7 km/h 19.3 km/h 26% 0 mm 1130.0 W/m2
12:50 29.4 °C 7.9 °C 1022.2 hPa NNE 11.1 km/h 16.1 km/h 26% 0 mm 234.0 W/m2
12:56 29.1 °C 8.7 °C 1022.2 hPa East 9.7 km/h 20.9 km/h 28% 0 mm 211.0 W/m2
13:01 28.9 °C 8 °C 1022.2 hPa SE 7.9 km/h 20.9 km/h 27% 0 mm 1165.0 W/m2
13:07 28.8 °C 7.9 °C 1022.2 hPa NNW 6.4 km/h 17.7 km/h 27% 0 mm 178.0 W/m2
13:12 29.1 °C 8.7 °C 1022.2 hPa SE 13 km/h 14.5 km/h 28% 0 mm 1100.0 W/m2
13:17 29.5 °C 7.4 °C 1022.2 hPa ESE 3.2 km/h 9.7 km/h 25% 0 mm 1114.0 W/m2
13:22 29.9 °C 7.7 °C 1022.2 hPa NNE 4.7 km/h 20.9 km/h 25% 0 mm 1097.0 W/m2
13:27 30.3 °C 8.1 °C 1021.9 hPa SSE 6.4 km/h 16.1 km/h 25% 0 mm 1065.0 W/m2
13:34 30.3 °C 8.7 °C 1021.9 hPa East 13 km/h 17.7 km/h 26% 0 mm 1129.0 W/m2
13:40 30.4 °C 8.2 °C 1021.9 hPa ESE 3.2 km/h 12.9 km/h 25% 0 mm 1171.0 W/m2
13:45 30.4 °C 8.7 °C 1021.6 hPa SE 9.7 km/h 14.5 km/h 26% 0 mm 190.0 W/m2
13:50 30.4 °C 7.6 °C 1021.9 hPa NE 6.4 km/h 19.3 km/h 24% 0 mm 1146.0 W/m2
13:55 30.6 °C 8.3 °C 1021.6 hPa East 6.4 km/h 16.1 km/h 25% 0 mm 1202.0 W/m2
14:01 30.6 °C 8.3 °C 1021.6 hPa NE 9.7 km/h 14.5 km/h 25% 0 mm 153.0 W/m2
14:17 30.4 °C 8.2 °C 1021.6 hPa ENE 1.4 km/h 14.5 km/h 25% 0 mm 306.0 W/m2
14:22 30.2 °C 8.6 °C 1021.6 hPa ESE 4.7 km/h 11.3 km/h 26% 0 mm 267.0 W/m2
14:28 30.1 °C 8.5 °C 1021.2 hPa SSW 1.4 km/h 4.8 km/h 26% 0 mm 348.0 W/m2
14:33 30.2 °C 8 °C 1021.2 hPa South 1.4 km/h 16.1 km/h 25% 0 mm 933.0 W/m2
14:44 30.6 °C 8.3 °C 1021.2 hPa ENE 14.3 km/h 16.1 km/h 25% 0 mm 1171.0 W/m2
14:49 30.7 °C 7.8 °C 1020.9 hPa SSE 4.7 km/h 17.7 km/h 24% 0 mm 234.0 W/m2
14:55 30.6 °C 7.7 °C 1020.9 hPa NE 7.9 km/h 8 km/h 24% 0 mm 1027.0 W/m2
15:00 30.9 °C 8.6 °C 1020.9 hPa ENE 11.1 km/h 11.3 km/h 25% 0 mm 1106.0 W/m2
15:05 31.1 °C 8.1 °C 1020.9 hPa NNE 7.9 km/h 16.1 km/h 24% 0 mm 287.0 W/m2
15:10 30.8 °C 8.5 °C 1020.9 hPa NE 6.4 km/h 14.5 km/h 25% 0 mm 232.0 W/m2
15:15 30.5 °C 8.2 °C 1020.9 hPa NNW 1.4 km/h 11.3 km/h 25% 0 mm 202.0 W/m2
15:21 30 °C 8.4 °C 1020.9 hPa NE 7.9 km/h 11.3 km/h 26% 0 mm 230.0 W/m2
15:26 29.7 °C 8.1 °C 1020.9 hPa ENE 3.2 km/h 11.3 km/h 26% 0 mm 260.0 W/m2
15:31 29.6 °C 8.1 °C 1020.9 hPa NNE 6.4 km/h 11.3 km/h 26% 0 mm 248.0 W/m2
15:37 29.6 °C 7.5 °C 1020.9 hPa East 6.4 km/h 14.5 km/h 25% 0 mm 287.0 W/m2
15:42 29.5 °C 6.8 °C 1020.9 hPa SSE 4.7 km/h 14.5 km/h 24% 0 mm 373.0 W/m2
15:47 29.4 °C 7.3 °C 1020.5 hPa SE 4.7 km/h 14.5 km/h 25% 0 mm 373.0 W/m2
15:53 29.6 °C 8.1 °C 1020.5 hPa Calm   8 km/h 26% 0 mm 186.0 W/m2
15:58 29.6 °C 8.1 °C 1020.5 hPa NE 1.4 km/h 11.3 km/h 26% 0 mm 156.0 W/m2
16:03 29.4 °C 7.9 °C 1020.5 hPa SE 3.2 km/h 20.9 km/h 26% 0 mm 174.0 W/m2
16:08 29.2 °C 7.7 °C 1020.5 hPa ENE 3.2 km/h 12.9 km/h 26% 0 mm 214.0 W/m2
16:13 29.1 °C 7.1 °C 1020.5 hPa NE 1.4 km/h 20.9 km/h 25% 0 mm 234.0 W/m2
16:18 29.1 °C 7.1 °C 1020.5 hPa Calm   9.7 km/h 25% 0 mm 243.0 W/m2
16:23 29.1 °C 7.1 °C 1020.5 hPa ENE 1.4 km/h 11.3 km/h 25% 0 mm 265.0 W/m2
16:28 29.2 °C 7.2 °C 1020.5 hPa North 1.4 km/h 11.3 km/h 25% 0 mm 295.0 W/m2
16:34 29.4 °C 7.3 °C 1020.2 hPa ESE 3.2 km/h 3.2 km/h 25% 0 mm 343.0 W/m2
16:39 29.7 °C 7.6 °C 1020.2 hPa North 1.4 km/h 9.7 km/h 25% 0 mm 650.0 W/m2
16:44 29.9 °C 7.1 °C 1020.2 hPa ESE 4.7 km/h 4.8 km/h 24% 0 mm 348.0 W/m2
16:50 30.2 °C 6.8 °C 1020.2 hPa SE 3.2 km/h 11.3 km/h 23% 0 mm 701.0 W/m2
16:55 30.6 °C 7.1 °C 1019.9 hPa NNE 6.4 km/h 11.3 km/h 23% 0 mm 689.0 W/m2
17:00 31.1 °C 7.5 °C 1019.9 hPa NNE 6.4 km/h 17.7 km/h 23% 0 mm 244.0 W/m2
17:06 31.1 °C 7.5 °C 1019.9 hPa NE 11.1 km/h 14.5 km/h 23% 0 mm 599.0 W/m2
17:11 31.1 °C 7.5 °C 1019.9 hPa ESE 7.9 km/h 16.1 km/h 23% 0 mm 519.0 W/m2
17:17 30.6 °C 7.7 °C 1019.9 hPa East 3.2 km/h 16.1 km/h 24% 0 mm 77.0 W/m2
17:22 30.2 °C 8 °C 1019.9 hPa NE 6.4 km/h 9.7 km/h 25% 0 mm 79.0 W/m2
17:27 29.8 °C 7.1 °C 1019.9 hPa Calm   12.9 km/h 24% 0 mm 69.0 W/m2
17:32 29.4 °C 7.3 °C 1019.9 hPa NE 6.4 km/h 12.9 km/h 25% 0 mm 84.0 W/m2
17:38 29.2 °C 7.7 °C 1019.9 hPa ESE 6.4 km/h 11.3 km/h 26% 0 mm 394.0 W/m2
17:43 29.5 °C 7.4 °C 1019.9 hPa ENE 11.1 km/h 19.3 km/h 25% 0 mm 338.0 W/m2
17:48 29.8 °C 7.1 °C 1019.9 hPa SE 11.1 km/h 12.9 km/h 24% 0 mm 353.0 W/m2
17:53 30.1 °C 7.9 °C 1019.9 hPa NE 6.4 km/h 12.9 km/h 25% 0 mm 318.0 W/m2
17:58 30.1 °C 7.3 °C 1019.9 hPa NE 6.4 km/h 16.1 km/h 24% 0 mm 281.0 W/m2
18:03 29.8 °C 7.7 °C 1019.9 hPa SE 3.2 km/h 6.4 km/h 25% 0 mm 264.0 W/m2
18:08 29.5 °C 7.4 °C 1019.9 hPa East 19.5 km/h 20.9 km/h 25% 0 mm 33.0 W/m2
18:13 28.8 °C 7.4 °C 1019.9 hPa East 4.7 km/h 11.3 km/h 26% 0 mm 83.0 W/m2
18:19 28.3 °C 7.5 °C 1020.2 hPa SE 3.2 km/h 11.3 km/h 27% 0 mm 33.0 W/m2
18:24 28.2 °C 7.4 °C 1020.2 hPa ESE 4.7 km/h 8 km/h 27% 0 mm 37.0 W/m2
18:29 28.1 °C 7.3 °C 1020.2 hPa Calm   6.4 km/h 27% 0 mm 123.0 W/m2
18:34 28.1 °C 7.3 °C 1020.2 hPa Calm   6.4 km/h 27% 0 mm 23.0 W/m2
18:39 28.1 °C 6.8 °C 1020.2 hPa SE 4.7 km/h 6.4 km/h 26% 0 mm 32.0 W/m2
18:44 27.9 °C 6.6 °C 1020.2 hPa SE 4.7 km/h 9.7 km/h 26% 0 mm 30.0 W/m2
18:50 27.9 °C 6.6 °C 1020.2 hPa NE 3.2 km/h 8 km/h 26% 0 mm 26.0 W/m2
18:55 27.9 °C 6.6 °C 1020.5 hPa Calm   4.8 km/h 26% 0 mm 18.0 W/m2
19:00 27.7 °C 6.5 °C 1020.5 hPa Calm   11.3 km/h 26% 0 mm 14.0 W/m2
19:05 27.6 °C 6.4 °C 1020.5 hPa SE 3.2 km/h 6.4 km/h 26% 0 mm 11.0 W/m2
19:10 27.4 °C 6.7 °C 1020.5 hPa Calm   6.4 km/h 27% 0 mm 9.0 W/m2
19:15 27.3 °C 6.7 °C 1020.5 hPa Calm   6.4 km/h 27% 0 mm 7.0 W/m2
19:20 27.1 °C 7 °C 1020.5 hPa ESE 1.4 km/h 1.6 km/h 28% 0 mm 5.0 W/m2
19:25 27 °C 6.9 °C 1020.5 hPa Calm   1.6 km/h 28% 0 mm 0.0 W/m2
19:30 26.8 °C 7.3 °C 1020.5 hPa Calm   4.8 km/h 29% 0 mm 0.0 W/m2
19:35 26.7 °C 7.2 °C 1020.5 hPa Calm   3.2 km/h 29% 0 mm 0.0 W/m2
19:40 26.4 °C 7.4 °C 1020.9 hPa Calm   1.6 km/h 30% 0 mm 0.0 W/m2
19:51 26.1 °C 7.6 °C 1020.9 hPa Calm     31% 0 mm 0.0 W/m2
20:01 25.7 °C 7.8 °C 1020.9 hPa Calm     32% 0 mm 0.0 W/m2
20:06 25.4 °C 8 °C 1021.2 hPa Calm     33% 0 mm 0.0 W/m2
20:11 25.2 °C 7.8 °C 1021.2 hPa Calm     33% 0 mm 0.0 W/m2
20:16 25 °C 8 °C 1021.2 hPa Calm   1.6 km/h 34% 0 mm 0.0 W/m2
20:26 24.6 °C 8.1 °C 1021.2 hPa Calm     35% 0 mm 0.0 W/m2
20:36 24.2 °C 8.2 °C 1021.6 hPa East 1.4 km/h 1.6 km/h 36% 0 mm 0.0 W/m2
20:42 24.1 °C 8.5 °C 1021.6 hPa Calm   1.6 km/h 37% 0 mm 0.0 W/m2
20:47 23.8 °C 8.2 °C 1021.6 hPa East 1.4 km/h 1.6 km/h 37% 0 mm 0.0 W/m2
20:52 23.7 °C 8.1 °C 1021.6 hPa Calm   4.8 km/h 37% 0 mm 0.0 W/m2
20:57 23.5 °C 8.4 °C 1021.6 hPa Calm   3.2 km/h 38% 0 mm 0.0 W/m2
21:02 23.4 °C 8.7 °C 1021.6 hPa Calm   3.2 km/h 39% 0 mm 0.0 W/m2
21:12 23.2 °C 8.9 °C 1021.9 hPa East 3.2 km/h 4.8 km/h 40% 0 mm 0.0 W/m2
21:18 23.1 °C 8.4 °C 1022.2 hPa ESE 3.2 km/h 11.3 km/h 39% 0 mm 0.0 W/m2
21:23 23.1 °C 9.1 °C 1022.2 hPa South 16.3 km/h 16.3 km/h 41% 0 mm 0.0 W/m2
21:28 23.3 °C 9.3 °C 1022.2 hPa South 9.7 km/h 16.1 km/h 41% 0 mm 0.0 W/m2
21:33 23.5 °C 9.5 °C 1022.2 hPa SE 6.4 km/h 16.1 km/h 41% 0 mm 0.0 W/m2
21:38 23.6 °C 9.6 °C 1022.6 hPa SSE 11.1 km/h 22.5 km/h 41% 0 mm 0.0 W/m2
21:43 23.7 °C 9.7 °C 1022.6 hPa SSE 9.7 km/h 14.5 km/h 41% 0 mm 0.0 W/m2
21:48 23.7 °C 9.7 °C 1022.6 hPa East 11.1 km/h 24.1 km/h 41% 0 mm 0.0 W/m2
21:53 23.7 °C 9.7 °C 1022.6 hPa SSE 7.9 km/h 17.7 km/h 41% 0 mm 0.0 W/m2
21:58 23.7 °C 9.7 °C 1022.6 hPa SE 7.9 km/h 16.1 km/h 41% 0 mm 0.0 W/m2
22:04 23.7 °C 9.7 °C 1022.6 hPa SE 9.7 km/h 19.3 km/h 41% 0 mm 0.0 W/m2
22:09 23.7 °C 9.7 °C 1022.6 hPa Calm   20.9 km/h 41% 0 mm 0.0 W/m2
22:14 23.7 °C 8.9 °C 1022.9 hPa SSE 9.7 km/h 29 km/h 39% 0 mm 0.0 W/m2
22:19 23.8 °C 9 °C 1022.9 hPa SE 9.7 km/h 20.9 km/h 39% 0 mm 0.0 W/m2
22:24 23.8 °C 9 °C 1022.9 hPa SE 9.7 km/h 16.1 km/h 39% 0 mm 0.0 W/m2
22:29 23.8 °C 9 °C 1022.9 hPa SSE 9.7 km/h 9.7 km/h 39% 0 mm 0.0 W/m2
22:34 23.8 °C 8.6 °C 1022.9 hPa ESE 4.7 km/h 12.9 km/h 38% 0 mm 0.0 W/m2
22:40 23.8 °C 8.6 °C 1022.9 hPa SE 3.2 km/h 12.9 km/h 38% 0 mm 0.0 W/m2
22:45 23.8 °C 8.6 °C 1023.2 hPa SE 3.2 km/h 11.3 km/h 38% 0 mm 0.0 W/m2
22:50 23.8 °C 8.6 °C 1022.9 hPa SSE 4.7 km/h 9.7 km/h 38% 0 mm 0.0 W/m2
22:56 23.8 °C 8.2 °C 1023.2 hPa SE 4.7 km/h 8 km/h 37% 0 mm 0.0 W/m2
23:01 23.9 °C 8.7 °C 1023.2 hPa SSE 3.2 km/h 14.5 km/h 38% 0 mm 0.0 W/m2
23:06 23.8 °C 8.6 °C 1023.2 hPa SSE 1.4 km/h 8 km/h 38% 0 mm 0.0 W/m2
23:11 23.7 °C 8.1 °C 1023.2 hPa SE 3.2 km/h 17.7 km/h 37% 0 mm 0.0 W/m2
23:16 23.7 °C 8.1 °C 1023.2 hPa SE 3.2 km/h 11.3 km/h 37% 0 mm 0.0 W/m2
23:21 23.7 °C 8.1 °C 1023.2 hPa SE 3.2 km/h 8 km/h 37% 0 mm 0.0 W/m2
23:31 23.6 °C 8.1 °C 1023.2 hPa Calm   4.8 km/h 37% 0 mm 0.0 W/m2
23:36 23.5 °C 8 °C 1023.2 hPa ESE 3.2 km/h 9.7 km/h 37% 0 mm 0.0 W/m2
23:41 23.5 °C 8 °C 1023.2 hPa SE 3.2 km/h 8 km/h 37% 0 mm 0.0 W/m2
23:46 23.4 °C 7.9 °C 1023.2 hPa Calm   3.2 km/h 37% 0 mm 0.0 W/m2
23:52 23.4 °C 8.3 °C 1023.2 hPa SE 3.2 km/h 8 km/h 38% 0 mm 0.0 W/m2
Olympia, Windhoek, Namibia
Compliments of Weather Underground - 3.25 mb